| time (UTC) | temp C | wind direction | speed KPH | gust KPH | rain 1hr cm | rain 24hr cm | rain mn cm | humidity % | barometer mb |
| 20260505152101 | 9 | 20 | 12.9 | 17.7 | 0.00 | 0.15 | 0.15 | 10 | 1010.2 |
| 20260505151056 | 10 | 26 | 11.3 | 16.1 | 0.00 | 0.15 | 0.15 | 10 | 1010.2 |
| 20260505124059 | 10 | 14 | 12.9 | 20.9 | 0.00 | 0.18 | 0.15 | 10 | 1010.8 |
| 20260505121057 | 11 | 4 | 9.7 | 16.1 | 0.00 | 0.18 | 0.15 | 10 | 1010.7 |
| 20260505120057 | 11 | 10 | 9.7 | 16.1 | 0.00 | 0.18 | 0.15 | 10 | 1010.8 |
| 20260505115055 | 10 | 352 | 9.7 | 14.5 | 0.00 | 0.18 | 0.15 | 10 | 1010.8 |
| 20260505113058 | 10 | 8 | 11.3 | 16.1 | 0.00 | 0.18 | 0.15 | 10 | 1011.0 |
| 20260505112058 | 11 | 18 | 9.7 | 12.9 | 0.00 | 0.18 | 0.15 | 10 | 1011.1 |
| 20260505111059 | 11 | 359 | 9.7 | 17.7 | 0.00 | 0.18 | 0.15 | 10 | 1011.1 |
| 20260505102055 | 10 | 6 | 8.0 | 14.5 | 0.00 | 0.18 | 0.15 | 10 | 1011.4 |
| 20260505101059 | 11 | 19 | 9.7 | 16.1 | 0.00 | 0.18 | 0.15 | 10 | 1011.3 |
| 20260505100056 | 11 | 21 | 11.3 | 14.5 | 0.00 | 0.18 | 0.15 | 10 | 1011.3 |
| 20260505095058 | 10 | 14 | 11.3 | 14.5 | 0.00 | 0.18 | 0.15 | 10 | 1011.4 |
| 20260505094058 | 11 | 14 | 9.7 | 17.7 | 0.03 | 0.18 | 0.15 | 10 | 1011.4 |
| 20260505093057 | 11 | 18 | 8.0 | 14.5 | 0.03 | 0.18 | 0.15 | 10 | 1011.4 |
| 20260505092057 | 10 | 15 | 9.7 | 14.5 | 0.03 | 0.18 | 0.15 | 10 | 1011.4 |
| 20260505091058 | 10 | 9 | 8.0 | 11.3 | 0.03 | 0.18 | 0.15 | 10 | 1011.4 |
| 20260505090055 | 10 | 5 | 9.7 | 12.9 | 0.03 | 0.18 | 0.15 | 10 | 1011.4 |
| 20260505085057 | 10 | 7 | 8.0 | 14.5 | 0.03 | 0.18 | 0.15 | 10 | 1011.4 |
| 20260505084057 | 10 | 6 | 8.0 | 14.5 | 0.05 | 0.18 | 0.15 | 10 | 1011.4 |
| 20260505083057 | 10 | 5 | 8.0 | 12.9 | 0.03 | 0.15 | 0.13 | 10 | 1011.5 |
| 20260505082058 | 10 | 354 | 9.7 | 12.9 | 0.03 | 0.15 | 0.13 | 10 | 1011.5 |
| 20260505080057 | 11 | 355 | 9.7 | 14.5 | 0.03 | 0.15 | 0.13 | 10 | 1011.6 |
| 20260505075056 | 11 | 3 | 9.7 | 12.9 | 0.03 | 0.15 | 0.13 | 10 | 1011.6 |
| 20260505074058 | 11 | 4 | 9.7 | 12.9 | 0.03 | 0.15 | 0.13 | 10 | 1011.5 |
| 20260505073058 | 11 | 1 | 8.0 | 12.9 | 0.03 | 0.15 | 0.10 | 10 | 1011.5 |
| 20260505072056 | 11 | 2 | 6.4 | 9.7 | 0.03 | 0.15 | 0.10 | 10 | 1011.5 |
| 20260505071059 | 11 | 29 | 8.0 | 11.3 | 0.03 | 0.15 | 0.10 | 10 | 1011.6 |
| 20260505070052 | 11 | 31 | 8.0 | 11.3 | 0.03 | 0.15 | 0.10 | 10 | 1011.7 |
| 20260505065057 | 11 | 28 | 8.0 | 12.9 | 0.03 | 0.15 | 0.10 | 10 | 1011.7 |
| 20260505064054 | 11 | 10 | 8.0 | 12.9 | 0.03 | 0.15 | 0.10 | 10 | 1011.7 |
| 20260505063055 | 11 | 5 | 8.0 | 11.3 | 0.03 | 0.15 | 0.10 | 10 | 1011.7 |
| 20260505062052 | 11 | 3 | 6.4 | 14.5 | 0.00 | 0.13 | 0.08 | 10 | 1011.7 |
| 20260505061054 | 11 | 3 | 8.0 | 12.9 | 0.03 | 0.13 | 0.08 | 10 | 1011.6 |
| 20260505060055 | 11 | 357 | 8.0 | 12.9 | 0.03 | 0.13 | 0.08 | 10 | 1011.6 |
| 20260505055055 | 11 | 353 | 9.7 | 14.5 | 0.05 | 0.13 | 0.08 | 10 | 1011.6 |
| 20260505054058 | 11 | 352 | 8.0 | 11.3 | 0.05 | 0.13 | 0.08 | 10 | 1011.6 |
| 20260505053055 | 11 | 349 | 6.4 | 9.7 | 0.08 | 0.13 | 0.08 | 10 | 1011.6 |
| 20260505052054 | 11 | 341 | 4.8 | 6.4 | 0.08 | 0.13 | 0.08 | 10 | 1011.6 |
| 20260505051057 | 11 | 341 | 4.8 | 6.4 | 0.08 | 0.13 | 0.08 | 10 | 1011.5 |
| 20260505041054 | 11 | 260 | 1.6 | 3.2 | 0.00 | 0.05 | 0.00 | 10 | 1011.7 |
| 20260505040056 | 11 | 253 | 3.2 | 4.8 | 0.00 | 0.05 | 0.00 | 10 | 1011.8 |
| 20260505035056 | 11 | 253 | 3.2 | 4.8 | 0.00 | 0.05 | 0.00 | 10 | 1011.9 |
| 20260505034056 | 11 | 220 | 4.8 | 6.4 | 0.00 | 0.05 | 0.00 | 10 | 1011.9 |
| 20260505033057 | 11 | 250 | 3.2 | 4.8 | 0.00 | 0.05 | 0.00 | 10 | 1011.9 |
| 20260505032055 | 11 | 249 | 3.2 | 3.2 | 0.00 | 0.05 | 0.00 | 10 | 1012.0 |
| 20260505031056 | 11 | 155 | 1.6 | 3.2 | 0.00 | 0.05 | 0.00 | 10 | 1012.2 |
| 20260505030055 | 11 | 149 | 3.2 | 3.2 | 0.00 | 0.05 | 0.00 | 10 | 1012.3 |
| 20260505025056 | 11 | 129 | 3.2 | 4.8 | 0.00 | 0.05 | 0.00 | 10 | 1012.5 |
| 20260505024058 | 11 | 120 | 3.2 | 6.4 | 0.00 | 0.05 | 0.00 | 10 | 1012.5 |
| 20260505023058 | 11 | 76 | 3.2 | 6.4 | 0.00 | 0.05 | 0.00 | 10 | 1012.4 |
| 20260505022055 | 11 | 328 | 0.0 | 0.0 | 0.00 | 0.05 | 0.00 | 10 | 1012.4 |
| 20260505020057 | 11 | 331 | 0.0 | 3.2 | 0.00 | 0.05 | 0.00 | 10 | 1012.4 |
| 20260505015056 | 11 | 335 | 1.6 | 4.8 | 0.00 | 0.05 | 0.00 | 10 | 1012.3 |
| 20260505014056 | 11 | 330 | 1.6 | 3.2 | 0.00 | 0.05 | 0.00 | 10 | 1012.3 |
| 20260505013053 | 11 | 332 | 1.6 | 3.2 | 0.00 | 0.05 | 0.00 | 10 | 1012.4 |
| 20260505011054 | 10 | 22 | 0.0 | 0.0 | 0.00 | 0.05 | 0.00 | 10 | 1012.5 |
| 20260505005059 | 10 | 339 | 1.6 | 3.2 | 0.00 | 0.05 | 0.00 | 10 | 1012.6 |
| 20260505004055 | 10 | 276 | 3.2 | 3.2 | 0.00 | 0.05 | 0.00 | 10 | 1012.7 |
| 20260505003058 | 10 | 260 | 3.2 | 4.8 | 0.00 | 0.05 | 0.00 | 10 | 1012.7 |
| 20260505002054 | 10 | 215 | 3.2 | 4.8 | 0.00 | 0.05 | 0.00 | 10 | 1012.9 |
| 20260505001057 | 10 | 158 | 3.2 | 3.2 | 0.00 | 0.05 | 0.00 | 10 | 1013.1 |
| 20260504235107 | 10 | 165 | 1.6 | 3.2 | 0.00 | 0.05 | 0.00 | 10 | 1013.2 |
| 20260504232105 | 10 | 208 | 1.6 | 3.2 | 0.00 | 0.05 | 0.00 | 10 | 1013.4 |
| 20260504231106 | 10 | 189 | 1.6 | 1.6 | 0.00 | 0.05 | 0.00 | 10 | 1013.4 |
| 20260504225109 | 10 | 228 | 0.0 | 0.0 | 0.00 | 0.05 | 0.00 | 10 | 1013.6 |
| 20260504224107 | 10 | 220 | 1.6 | 1.6 | 0.00 | 0.05 | 0.00 | 10 | 1013.6 |
| 20260504221107 | 10 | 171 | 0.0 | 0.0 | 0.00 | 0.05 | 0.00 | 99 | 1013.9 |
| 20260504220109 | 10 | 183 | 1.6 | 3.2 | 0.00 | 0.05 | 0.00 | 99 | 1014.0 |
| 20260504215112 | 10 | 203 | 0.0 | 1.6 | 0.00 | 0.05 | 0.05 | 99 | 1014.0 |
| 20260504214115 | 10 | 187 | 1.6 | 1.6 | 0.00 | 0.05 | 0.05 | 99 | 1014.1 |
| 20260504213115 | 10 | 153 | 3.2 | 3.2 | 0.00 | 0.05 | 0.05 | 99 | 1014.2 |
| 20260504212115 | 10 | 157 | 1.6 | 1.6 | 0.00 | 0.05 | 0.05 | 99 | 1014.2 |
| 20260504211109 | 10 | 161 | 3.2 | 3.2 | 0.00 | 0.05 | 0.05 | 99 | 1014.2 |
| 20260504210112 | 10 | 150 | 3.2 | 3.2 | 0.00 | 0.05 | 0.05 | 98 | 1014.3 |
| 20260504205112 | 10 | 149 | 3.2 | 3.2 | 0.00 | 0.05 | 0.05 | 98 | 1014.3 |
| 20260504204112 | 11 | 171 | 3.2 | 6.4 | 0.00 | 0.05 | 0.05 | 98 | 1014.4 |
| 20260504203112 | 11 | 169 | 4.8 | 4.8 | 0.00 | 0.05 | 0.05 | 98 | 1014.4 |
| 20260504202127 | 11 | 169 | 4.8 | 4.8 | 0.00 | 0.05 | 0.05 | 98 | 1014.3 |
| 20260504201116 | 11 | 161 | 3.2 | 4.8 | 0.00 | 0.05 | 0.05 | 98 | 1014.3 |
| 20260504200112 | 11 | 155 | 4.8 | 4.8 | 0.00 | 0.05 | 0.05 | 98 | 1014.3 |
| 20260504195110 | 11 | 164 | 4.8 | 6.4 | 0.00 | 0.05 | 0.05 | 97 | 1014.1 |
| 20260504194108 | 11 | 156 | 4.8 | 4.8 | 0.00 | 0.05 | 0.05 | 97 | 1014.0 |
| 20260504193107 | 11 | 141 | 4.8 | 4.8 | 0.00 | 0.05 | 0.05 | 97 | 1014.0 |
| 20260504192110 | 11 | 148 | 3.2 | 4.8 | 0.00 | 0.05 | 0.05 | 97 | 1013.9 |
| 20260504191111 | 11 | 143 | 4.8 | 6.4 | 0.00 | 0.05 | 0.05 | 96 | 1013.8 |
| 20260504190110 | 11 | 131 | 3.2 | 6.4 | 0.00 | 0.05 | 0.05 | 96 | 1013.9 |
| 20260504185110 | 11 | 127 | 3.2 | 4.8 | 0.00 | 0.05 | 0.05 | 95 | 1013.8 |
| 20260504184105 | 12 | 121 | 4.8 | 6.4 | 0.00 | 0.05 | 0.05 | 94 | 1013.7 |
| 20260504182102 | 13 | 149 | 3.2 | 4.8 | 0.00 | 0.05 | 0.05 | 92 | 1013.4 |
| 20260504181107 | 13 | 156 | 4.8 | 8.0 | 0.00 | 0.05 | 0.05 | 92 | 1013.5 |
| 20260504175104 | 13 | 156 | 8.0 | 12.9 | 0.00 | 0.05 | 0.05 | 92 | 1013.7 |
| 20260504174103 | 13 | 152 | 8.0 | 11.3 | 0.00 | 0.05 | 0.05 | 92 | 1013.6 |
| 20260504173106 | 13 | 139 | 4.8 | 9.7 | 0.00 | 0.05 | 0.05 | 93 | 1013.6 |
| 20260504172103 | 13 | 143 | 4.8 | 8.0 | 0.00 | 0.05 | 0.05 | 93 | 1013.7 |
| 20260504171104 | 13 | 129 | 4.8 | 6.4 | 0.00 | 0.05 | 0.05 | 92 | 1013.7 |